Regional Weather Roundup
Issued by NWS

Home | Current Version | Previous Version | Text Only | Print | Product List | Glossary Off
Versions: 1 2 3 4 5 6 7 8 9 10 11 12 13 14 15 16 17 18 19 20 21 22 23 24 25 26 27 28 29 30 31 32 33 34 35 36 37 38 39 40 41 42 43 44 45 46 47 48 49 50

000
ASUS43 KOAX 131702
RWRNE

WEATHER ROUNDUP FOR NEBRASKA
NATIONAL WEATHER SERVICE OMAHA NE
1100 AM CST SAT FEB 13 2016

NOTES: SATELLITE DATA IS BEING USED TO AUGMENT CLOUD COVER ABOVE
       12000 FEET.
       "FAIR" INDICATES FEW OR NO CLOUDS BELOW 12,000 FEET WITH NO
       SIGNIFICANT WEATHER AND/OR OBSTRUCTIONS TO VISIBILITY.

  * THESE STATIONS DO NOT REPORT WEATHER SUCH AS RAIN...SNOW OR FOG.

NEZ001>004-019>022-054>056-131800-
NEBRASKA PANHANDLE

CITY           SKY/WX    TMP DP  RH WIND       PRES   REMARKS
SCOTTSBLUFF    CLOUDY    36  32  85 SE9       30.02F WCI  29
ALLIANCE       CLOUDY    32  30  92 S16       30.03F WCI  21
CHADRON        CLOUDY    42  32  67 S12       29.99F
KIMBALL        FOG       32  32 100 S6        30.03F VSB 1/4 WCI  26
SIDNEY         CLOUDY    30  30 100 S15       30.06F FOG     WCI  19
$$

NEZ057>060-069>072-079>082-131800-
SOUTHWEST NEBRASKA

CITY           SKY/WX    TMP DP  RH WIND       PRES   REMARKS
NORTH PLATTE   CLOUDY    23  18  81 S17       30.21F WCI   9
IMPERIAL       CLOUDY    25  24  96 S17       30.16F WCI  12
MCCOOK         CLOUDY    22  18  85 S16       30.26F WCI   8
$$

NEZ005>010-023>029-035>040-094-131800-
NORTH CENTRAL NEBRASKA

CITY           SKY/WX    TMP DP  RH WIND       PRES   REMARKS
VALENTINE      CLOUDY    25  21  85 S21G26    30.15F WCI  11
AINSWORTH      CLOUDY    23  16  73 SE21      30.20F WCI   8
BROKEN BOW     CLOUDY    19  14  81 S20G25    30.27F WCI   3
ORD            CLOUDY    19   5  54 SE14G23   30.34F WCI   6
$$

NEZ041-046>049-061>064-073>077-083>087-131800-
SOUTH CENTRAL NEBRASKA

CITY           SKY/WX    TMP DP  RH WIND       PRES   REMARKS
GRAND ISLAND   CLOUDY    18   9  68 S15       30.40F WCI   4
HASTINGS       CLOUDY    19   8  62 SE14      30.38F WCI   6
HEBRON         CLOUDY    21   5  50 SE13      30.45F WCI   9
KEARNEY *      CLOUDY    19  12  73 S16       30.35F WCI   5
$$

NEZ011>018-030>034-042>045-131800-
NORTHEAST NEBRASKA

CITY           SKY/WX    TMP DP  RH WIND       PRES   REMARKS
NORFOLK        CLOUDY    13   5  70 SE14      30.44F WCI  -2
BLAIR          CLOUDY    12   4  70 SE8       30.51F WCI   1
COLUMBUS *     CLOUDY    16   0  48 SE8       30.47F WCI   5
FREMONT        CLOUDY    13   2  61 SE8       30.51F WCI   2
TEKAMAH        CLOUDY    10   2  69 SE10      30.56F WCI  -4
$$

NEZ050>053-065>068-078-088>093-131800-
SOUTHEAST NEBRASKA

CITY           SKY/WX    TMP DP  RH WIND       PRES   REMARKS
LINCOLN        CLOUDY    17   4  56 SE9       30.52F WCI   6
OMAHA EPPLEY   CLOUDY    14   4  64 SE10      30.56F WCI   1
BEATRICE       CLOUDY    19   4  51 SE9       30.49F WCI   8
FALLS CITY     CLOUDY    18   3  52 SE8       30.56F WCI   8
NEBRASKA CITY  CLOUDY    16   4  60 SE9       30.54F WCI   4
$$

NEZ044-045-051>053-067-131800-
OMAHA AREA

CITY           SKY/WX    TMP DP  RH WIND       PRES   REMARKS
OMAHA EPPLEY   CLOUDY    14   4  64 SE10      30.56F WCI   1
BLAIR          CLOUDY    12   4  70 SE8       30.51F WCI   1
FREMONT        CLOUDY    13   2  61 SE8       30.51F WCI   2
OFFUTT AFB     CLOUDY    15   3  60 SE10      30.55F WCI   2
WAHOO          CLOUDY    15   5  67 SE12      30.51F WCI   1
$$



USA.gov is the U.S. government's official web portal to all federal, state and local government web resources and services.